Location: Newark
(47.5833°N, 8.1500°E)
Time: 08:39:45
(UTC+00:00)

Vanguard 1 - Pass Details

Date: 27 October 2020
Orbit: 650 x 3833 km, 34.2° (Epoch: 29 November)

Event Time Altitude Azimuth Distance (km) Brightness Sun altitude
Rises 11:17:27 0° 216° (SW) 7,321 15.3 29.4°
Reaches altitude 10° 11:22:37 10° 209° (SSW) 6,580 15.5 29.3°
Maximum altitude 11:42:19 39° 150° (SSE) 4,876 14.7 29.0°
Drops below altitude 10° 12:00:20 10° 91° (E) 6,101 14.1 28.4°
Sets 12:04:49 0° 85° (E) 6,770 14.2 28.2°
